Location: Nairn
(57.5833°N, 3.8667°W)
Time: 02:20:49
(UTC+00:00)

Transit 2A - Pass Details

Date: 01 December 2020
Orbit: 598 x 960 km, 66.7° (Epoch: 20 January)

Event Time Altitude Azimuth Distance (km) Brightness Sun altitude
Rises 17:41:51 0° 212° (SSW) 3,616 10.3 -15.4°
Reaches altitude 10° 17:44:28 10° 210° (SSW) 2,651 9.5 -15.8°
Maximum altitude 17:50:37 68° 130° (SE) 970 6.3 -16.6°
Enters shadow 17:54:06 25° 54° (NE) 1,684 7.2 -17.0°
